Wind_Speed
36 35 35 36 37 39 41 45 43 40 43 46 44 33 22 24 60 70 60 56 55 45 35 42 32 48 42 47 43 42 44 33 34 34 33 30 27 24 24 29 24 18 24 19
38 39 40 40 40 42 45 48 45 40 43 43 41 34 29 28 50 68 62 64 51 37 46 45 47 47 41 46 48 46 43 47 32 33 28 36 33 26 22 21 19 29 29 28
45 46 45 45 44 43 48 53 49 43 42 36 37 39 35 39 35 58 60 59 57 44 46 34 49 46 45 45 50 50 44 47 48 41 36 27 31 26 30 26 26 24 27 24
53 51 50 49 48 49 54 58 54 49 44 37 36 32 37 37 30 47 62 66 60 38 43 26 44 48 46 41 50 52 46 46 46 45 42 24 25 24 29 32 31 30 23 22
57 57 55 54 52 52 59 61 50 52 51 44 38 34 32 35 36 33 57 72 56 46 33 47 44 40 42 39 50 54 50 52 41 43 40 38 34 26 24 27 30 29 27 24
65 66 66 63 60 57 61 60 53 57 53 48 39 36 34 32 32 32 43 65 64 47 36 30 32 39 40 33 41 55 46 45 43 47 39 40 45 33 32 31 29 25 25 23
74 75 74 71 69 66 64 61 57 64 58 52 41 39 35 37 34 27 40 58 66 53 28 25 32 28 34 46 41 45 52 44 44 37 42 51 42 42 40 40 28 26 25 25
67 69 70 71 74 73 71 65 65 65 58 50 49 41 38 36 32 32 37 51 65 64 54 36 34 32 38 40 50 43 40 50 47 49 45 45 44 35 35 29 27 27 23 25
45 45 46 47 52 62 71 71 65 64 59 52 50 44 40 34 33 32 32 48 52 65 57 46 51 33 37 37 45 50 40 44 48 37 49 45 41 36 31 29 36 21 26 30
50 46 44 43 44 49 53 64 64 66 62 54 48 47 40 33 33 32 25 43 54 54 60 54 40 39 45 42 37 45 50 45 48 54 46 43 39 30 29 38 30 19 30 25
54 52 49 46 44 50 53 59 62 65 63 54 48 43 33 33 34 29 25 41 55 56 56 54 51 37 40 38 40 40 39 39 43 43 47 44 29 31 36 27 24 33 33 31
54 50 50 50 46 46 56 63 58 62 61 54 40 42 33 36 30 27 30 35 42 55 57 51 51 46 35 40 40 38 43 31 34 41 35 37 37 34 30 34 39 36 37 33
52 46 44 44 44 45 60 54 56 61 54 45 31 34 38 31 30 29 25 34 37 43 53 53 54 48 44 38 41 41 42 35 30 34 37 31 29 32 32 33 33 39 42 34
47 42 43 41 42 51 58 54 58 61 51 44 29 32 36 37 35 28 30 32 46 44 53 58 50 43 42 38 38 39 39 39 41 39 33 32 28 37 22 29 32 30 33 41
42 42 37 43 48 47 49 47 51 48 44 42 34 36 34 34 34 29 31 34 43 47 46 53 51 40 41 40 38 39 35 37 45 43 39 39 38 38 35 35 34 35 38 37
45 42 38 48 47 45 46 48 47 45 44 39 40 34 27 28 30 32 33 40 46 45 32 51 57 47 43 43 40 39 41 37 35 37 38 40 42 38 43 43 39 37 39 39
39 42 46 41 44 42 40 40 44 44 41 37 32 31 28 27 29 35 39 46 58 52 34 46 50 49 45 43 42 33 33 29 32 36 32 30 33 37 32 29 29 31 35 39
38 46 51 46 43 40 39 40 39 38 36 33 30 28 26 29 31 38 47 56 60 58 45 48 45 39 44 46 37 26 28 32 29 30 24 27 31 29 26 30 34 37 38 38
49 46 43 43 43 41 38 37 37 36 37 32 25 22 22 14 22 46 48 54 58 52 50 38 39 40 40 41 34 28 27 31 30 30 27 23 27 31 33 36 38 39 40 40
43 42 41 39 38 39 36 34 36 38 35 32 24 18 18 20 27 38 40 49 43 46 43 41 40 33 42 37 32 27 32 32 28 27 29 30 30 33 36 38 38 34 32 34
39 43 42 39 38 36 35 35 36 33 32 26 22 17 19 24 38 39 38 50 43 44 47 44 47 37 34 37 28 28 23 24 28 29 29 30 32 33 34 38 39 36 35 37
37 36 37 37 35 33 31 33 34 32 27 20 17 18 17 25 38 41 42 41 41 34 36 38 41 49 46 34 21 28 25 23 25 29 31 33 35 36 37 36 34 33 34 36
32 30 30 30 29 29 31 32 27 23 19 13 17 16 21 30 35 39 41 41 31 22 30 38 38 38 42 44 39 30 23 24 29 33 36 38 39 38 36 36 36 35 29 38
27 26 24 23 24 24 24 24 24 23 21 14 17 18 28 22 34 33 31 24 31 26 28 33 34 33 30 30 30 31 31 33 35 38 40 39 39 39 37 35 33 32 34 32
21 20 20 20 19 20 17 16 21 25 22 22 21 21 24 22 36 33 28 19 28 34 23 32 31 28 27 27 28 31 34 35 37 38 37 35 33 30 28 30 33 35 41 43
17 15 16 15 13 17 11 31 35 27 24 26 20 19 15 14 16 32 36 30 28 26 21 23 25 27 30 31 28 29 30 30 30 27 24 26 26 30 35 40 41 38 37 37
22 23 26 18 14 20 38 34 28 25 28 29 23 17 12 11 19 29 28 29 26 19 18 18 20 23 26 27 28 25 24 24 23 25 26 28 31 35 35 34 35 36 39 42
Wind_Direction
244 244 244 246 252 253 254 258 256 251 249 249 258 266 288 247 225 220 209 202 208 223 229 230 248 242 241 245 242 204 198 199 207 210 235 231 231 231 234 243 228 236 251 209
248 248 249 248 250 252 251 254 255 253 250 252 258 260 254 259 228 225 223 211 209 203 223 217 230 240 235 243 243 209 203 204 216 216 214 238 222 224 241 254 243 227 239 244
253 255 254 252 251 248 250 246 246 246 251 252 249 249 245 246 257 231 210 222 206 195 218 227 231 235 232 239 235 215 207 209 207 215 215 232 233 227 217 236 251 251 243 249
255 253 251 250 251 250 247 241 242 244 248 249 253 257 254 253 266 239 220 214 218 212 198 207 232 234 235 240 233 209 197 212 214 219 212 221 246 240 231 234 234 242 253 252
256 254 253 254 254 245 239 240 243 242 242 239 244 248 248 245 248 247 221 218 213 205 196 222 228 225 228 235 221 207 198 206 210 217 221 208 219 224 252 238 234 239 249 250
257 253 251 251 252 244 234 236 235 236 237 239 237 245 247 249 245 254 220 221 215 210 223 206 223 234 221 219 214 207 198 210 212 220 218 209 216 207 218 236 237 234 238 245
256 254 251 248 243 238 232 230 229 229 233 233 234 239 243 242 242 255 224 214 214 199 195 201 227 225 237 219 208 212 203 204 206 214 218 219 217 217 226 230 236 238 238 247
254 250 248 243 237 231 229 225 223 227 228 230 230 234 236 239 238 246 232 213 216 205 218 218 214 225 229 228 215 203 215 224 220 219 218 226 224 223 230 238 239 243 244 250
242 238 235 233 227 223 221 222 220 223 223 222 228 234 240 238 237 243 236 217 208 210 209 213 212 231 229 222 216 216 212 223 217 216 222 226 229 230 230 238 244 241 252 253
237 233 227 220 215 214 215 216 215 216 218 215 225 236 237 238 231 236 233 221 196 213 212 212 203 226 231 224 211 213 217 220 229 228 231 232 234 231 235 232 236 244 249 252
228 225 221 219 215 212 218 213 213 210 211 209 215 224 228 234 227 232 231 210 199 210 207 214 210 227 227 223 216 207 208 219 227 230 229 230 231 230 232 233 234 237 251 258
216 216 215 216 217 218 202 207 207 202 206 209 210 214 214 226 216 225 230 219 215 216 214 212 207 221 225 221 224 222 205 207 226 227 231 243 237 246 244 224 224 231 246 257
203 203 204 202 207 196 193 201 199 196 199 199 197 206 217 221 213 225 231 217 206 205 211 220 229 229 227 222 221 220 219 217 209 216 226 238 240 247 238 244 241 241 245 250
187 194 186 190 190 186 194 199 190 192 191 194 189 197 211 218 218 228 231 210 201 200 201 207 218 218 219 219 224 224 227 234 233 231 226 229 232 238 233 251 245 249 260 258
166 167 173 177 173 176 186 185 185 185 188 194 195 207 212 213 220 230 228 210 193 186 210 215 218 219 217 219 222 219 220 229 231 233 239 242 241 244 246 247 256 253 264 263
153 157 159 155 163 167 172 180 182 184 184 193 199 207 206 217 222 223 217 196 183 176 214 216 216 218 218 221 217 212 217 225 231 237 246 246 249 254 255 256 256 257 256 256
153 154 157 153 160 161 167 172 176 179 186 194 201 197 207 211 217 213 194 190 178 187 201 209 218 221 222 223 224 221 223 230 234 237 247 251 248 250 251 260 259 258 263 263
144 149 152 156 159 160 166 167 175 181 184 187 191 204 217 228 228 219 206 191 185 188 196 207 213 215 220 224 224 217 221 229 235 240 244 246 246 251 253 261 264 265 266 271
139 135 140 149 155 161 164 169 175 173 178 182 195 208 217 224 244 208 204 195 191 188 194 198 209 215 217 224 227 222 223 229 232 231 235 243 246 247 248 254 260 265 270 271
138 142 142 145 150 152 159 167 169 173 183 193 194 209 212 214 202 193 186 182 186 194 190 193 210 215 219 227 226 225 227 230 232 238 238 245 252 254 255 257 261 270 273 269
140 139 139 141 147 154 163 169 173 183 195 198 208 230 197 189 188 179 189 190 189 186 186 192 206 207 211 221 220 214 219 222 221 230 237 243 250 256 259 258 264 268 267 273
138 142 145 150 154 159 165 171 178 188 198 208 218 221 184 187 188 187 189 182 181 182 190 199 207 211 217 213 205 208 219 223 227 236 245 251 253 255 258 261 265 270 277 281
144 148 153 155 158 165 169 172 180 200 207 227 210 184 173 179 188 198 202 191 176 201 208 205 210 215 220 227 226 228 234 237 235 239 244 249 253 258 265 269 270 273 280 281
147 151 154 156 165 170 177 186 195 212 237 211 201 192 198 206 187 188 182 186 189 198 218 209 204 206 214 224 226 227 229 233 238 241 245 251 258 265 269 270 268 262 266 258
160 160 169 178 186 194 197 208 190 157 151 171 154 147 148 164 187 188 181 188 193 204 223 209 194 193 207 215 218 222 229 239 245 252 258 261 261 260 265 268 271 267 267 271
174 179 177 184 197 214 178 150 159 159 152 160 146 142 140 158 169 196 212 204 206 212 213 206 206 201 211 221 225 227 236 240 245 252 254 259 259 258 260 263 266 269 273 275
159 145 137 127 137 168 144 136 153 163 148 140 134 128 155 178 184 181 201 209 219 222 203 200 191 203 214 215 217 227 238 240 237 234 230 237 247 260 266 270 275 279 282 284
Height
5503 5508 5514 5519 5524 5527 5527 5528 5533 5541 5542 5543 5547 5554 5563 5567 5582 5585 5596 5597 5608 5624 5635 5640 5646 5648 5656 5657 5664 5666 5678 5685 5690 5696 5701 5704 5707 5709 5712 5713 5717 5717 5718 5721
5492 5497 5502 5507 5512 5514 5516 5517 5523 5529 5531 5533 5538 5545 5552 5553 5552 5559 5585 5588 5599 5612 5621 5630 5633 5635 5647 5648 5654 5659 5670 5675 5682 5688 5693 5694 5698 5701 5706 5708 5709 5710 5712 5713
5479 5484 5488 5493 5498 5501 5500 5503 5510 5517 5519 5526 5529 5533 5540 5543 5548 5554 5573 5586 5590 5594 5609 5619 5621 5626 5636 5640 5646 5648 5659 5664 5669 5677 5684 5693 5692 5696 5699 5702 5703 5704 5704 5708
5462 5467 5472 5478 5483 5486 5483 5484 5499 5508 5511 5517 5521 5528 5531 5537 5541 5546 5560 5569 5584 5593 5598 5607 5611 5616 5625 5631 5636 5640 5648 5653 5663 5671 5679 5685 5688 5690 5693 5694 5696 5697 5701 5701
5442 5447 5453 5459 5465 5470 5462 5470 5488 5494 5500 5507 5512 5518 5522 5526 5532 5535 5547 5556 5576 5592 5592 5599 5603 5609 5615 5623 5627 5631 5637 5645 5654 5661 5668 5675 5678 5682 5685 5687 5689 5691 5693 5694
5421 5426 5432 5440 5446 5449 5446 5461 5478 5478 5487 5496 5505 5510 5514 5520 5524 5527 5536 5552 5566 5581 5588 5592 5596 5600 5608 5615 5618 5624 5630 5638 5646 5651 5660 5667 5666 5672 5678 5681 5682 5685 5686 5689
5394 5399 5407 5415 5423 5429 5433 5450 5462 5462 5472 5485 5496 5500 5506 5511 5515 5519 5525 5537 5552 5577 5579 5584 5590 5596 5599 5607 5615 5619 5625 5630 5637 5645 5652 5647 5658 5666 5670 5670 5674 5676 5678 5680
5363 5368 5376 5384 5396 5407 5415 5433 5440 5450 5464 5479 5485 5491 5496 5502 5508 5511 5518 5528 5546 5565 5567 5570 5579 5584 5590 5599 5608 5615 5621 5626 5630 5635 5640 5647 5652 5658 5661 5666 5669 5671 5673 5674
5344 5350 5357 5364 5372 5384 5397 5412 5430 5442 5456 5467 5475 5482 5487 5497 5502 5506 5511 5521 5533 5547 5561 5564 5571 5574 5581 5592 5600 5609 5615 5619 5625 5628 5632 5634 5644 5652 5656 5660 5657 5667 5666 5665
5328 5337 5345 5354 5363 5373 5383 5399 5415 5430 5444 5458 5468 5472 5480 5489 5495 5500 5505 5512 5524 5533 5549 5557 5563 5570 5578 5585 5592 5598 5605 5611 5614 5622 5625 5631 5638 5646 5650 5649 5656 5660 5655 5657
5308 5321 5333 5343 5353 5364 5373 5389 5403 5419 5436 5450 5457 5465 5475 5482 5487 5493 5501 5507 5515 5525 5541 5551 5558 5562 5571 5579 5586 5590 5599 5603 5608 5616 5619 5624 5631 5635 5640 5648 5650 5649 5648 5650
5290 5305 5319 5332 5344 5353 5364 5378 5396 5415 5430 5442 5449 5461 5469 5475 5482 5487 5491 5500 5511 5524 5534 5545 5550 5557 5564 5574 5579 5584 5590 5595 5603 5609 5615 5618 5624 5627 5633 5634 5635 5640 5639 5641
5277 5296 5310 5323 5335 5345 5359 5376 5393 5407 5421 5433 5445 5455 5464 5471 5477 5482 5487 5493 5503 5513 5529 5538 5543 5548 5560 5566 5573 5580 5586 5590 5594 5600 5608 5612 5617 5619 5623 5627 5630 5631 5631 5634
5274 5290 5305 5319 5330 5344 5358 5372 5388 5403 5418 5429 5441 5449 5458 5464 5471 5477 5483 5488 5493 5505 5515 5526 5535 5543 5552 5560 5566 5573 5581 5586 5590 5595 5601 5602 5607 5611 5612 5619 5620 5623 5625 5626
5276 5292 5306 5317 5331 5346 5360 5377 5393 5409 5419 5429 5438 5445 5453 5460 5466 5472 5477 5485 5490 5504 5512 5522 5531 5538 5545 5552 5559 5566 5574 5579 5582 5588 5594 5597 5601 5604 5607 5611 5614 5616 5615 5616
5285 5299 5310 5324 5337 5350 5362 5375 5389 5402 5415 5427 5433 5442 5448 5454 5459 5464 5472 5479 5484 5497 5510 5518 5523 5530 5539 5544 5551 5560 5566 5572 5578 5581 5585 5589 5593 5596 5597 5601 5603 5604 5607 5606
5296 5308 5321 5333 5346 5359 5371 5383 5395 5405 5415 5425 5432 5439 5444 5449 5453 5459 5468 5473 5478 5489 5500 5509 5518 5528 5533 5537 5545 5557 5562 5568 5570 5572 5577 5582 5584 5586 5590 5591 5593 5594 5595 5595
5306 5316 5328 5340 5352 5364 5375 5386 5396 5407 5415 5422 5430 5436 5441 5445 5449 5453 5459 5466 5473 5482 5493 5504 5514 5523 5528 5530 5542 5551 5556 5560 5564 5568 5572 5573 5576 5579 5581 5583 5583 5584 5585 5586
5322 5331 5341 5351 5362 5371 5380 5389 5397 5407 5415 5420 5428 5434 5438 5439 5439 5444 5451 5460 5469 5480 5487 5498 5508 5516 5519 5528 5539 5545 5550 5553 5558 5560 5564 5568 5568 5570 5572 5573 5574 5575 5576 5576
5336 5343 5350 5358 5367 5377 5385 5394 5402 5408 5414 5421 5427 5431 5434 5437 5437 5443 5452 5458 5465 5473 5486 5495 5501 5510 5516 5522 5530 5537 5542 5547 5552 5555 5557 5560 5562 5563 5563 5565 5566 5568 5567 5566
5346 5352 5359 5367 5375 5382 5390 5397 5404 5410 5414 5422 5427 5429 5432 5435 5439 5445 5450 5456 5462 5470 5480 5487 5495 5505 5510 5515 5525 5532 5536 5540 5544 5548 5550 5552 5553 5555 5556 5557 5557 5558 5556 5556
5358 5363 5369 5374 5380 5387 5393 5399 5405 5410 5416 5421 5426 5428 5431 5434 5438 5444 5448 5453 5460 5467 5476 5481 5487 5496 5504 5512 5520 5526 5531 5535 5539 5542 5544 5545 5545 5546 5546 5547 5547 5548 5548 5547
5366 5371 5376 5379 5386 5391 5396 5402 5408 5410 5417 5421 5425 5428 5431 5434 5437 5442 5447 5453 5457 5467 5471 5475 5483 5492 5500 5507 5518 5523 5527 5530 5532 5534 5535 5535 5536 5538 5539 5539 5539 5539 5539 5537
5372 5376 5382 5386 5390 5396 5402 5407 5411 5414 5417 5422 5426 5430 5433 5435 5441 5445 5449 5455 5460 5464 5469 5472 5479 5488 5496 5503 5510 5516 5521 5522 5524 5525 5526 5528 5530 5531 5531 5530 5529 5529 5529 5528
5378 5383 5387 5390 5395 5399 5404 5407 5410 5415 5421 5427 5429 5433 5435 5439 5443 5447 5451 5453 5455 5462 5467 5471 5476 5484 5491 5497 5503 5508 5511 5514 5516 5518 5519 5520 5521 5521 5521 5521 5520 5519 5518 5516
5384 5387 5390 5393 5396 5399 5405 5408 5414 5420 5423 5428 5430 5433 5437 5439 5443 5445 5447 5452 5455 5461 5464 5469 5474 5480 5486 5491 5496 5500 5503 5506 5508 5509 5510 5510 5511 5512 5512 5512 5510 5508 5506 5504
5385 5389 5394 5397 5400 5402 5410 5414 5420 5424 5426 5428 5431 5434 5437 5439 5441 5445 5447 5452 5455 5459 5463 5468 5473 5478 5482 5486 5491 5495 5497 5499 5500 5502 5503 5503 5503 5503 5502 5501 5499 5498 5496 5493